• In Germany
  • List of Countries
  • For 7 days
  • Water Temperature
  • Satellite Maps
  • Weather Map
  • Weather Widgets
  • user-avatar
    Login

    Hourly Weather Herāt

    Today, 28 May, Monday

    Time Temperature Precipitation Wind Pressure Humidity
    00:00 +23°C° 0 mm 11 mps 682 mmHg 44%
    01:00 +22°C° 0 mm 11 mps 683 mmHg 46%
    02:00 +22°C° 0 mm 10 mps 683 mmHg 47%
    03:00 +21°C° 0 mm 10 mps 682 mmHg 48%
    04:00 +19°C° 0 mm 10 mps 682 mmHg 50%
    05:00 +21°C° 0 mm 10 mps 683 mmHg 48%
    06:00 +21°C° 0 mm 10 mps 683 mmHg 46%
    07:00 +21°C° 0 mm 10 mps 684 mmHg 45%
    08:00 +22°C° 0 mm 10 mps 683 mmHg 41%
    09:00 +24°C° 0 mm 10 mps 683 mmHg 37%
    10:00 +26°C° 0 mm 9 mps 683 mmHg 33%
    11:00 +27°C° 0 mm 9 mps 683 mmHg 31%
    12:00 +27°C° 0 mm 9 mps 683 mmHg 28%
    13:00 +28°C° 0 mm 9 mps 682 mmHg 25%
    14:00 +28°C° 0 mm 9 mps 682 mmHg 25%
    15:00 +28°C° 0 mm 9 mps 681 mmHg 24%
    16:00 +28°C° 0 mm 9 mps 680 mmHg 23%
    17:00 +27°C° 0 mm 9 mps 680 mmHg 23%
    18:00 +24°C° 0 mm 8 mps 680 mmHg 23%
    19:00 +23°C° 0 mm 8 mps 679 mmHg 23%
    20:00 +22°C° 0 mm 7 mps 679 mmHg 22%
    21:00 +21°C° 0 mm 7 mps 679 mmHg 22%
    22:00 +20°C° 0 mm 7 mps 679 mmHg 21%
    23:00 +20°C° 0 mm 6 mps 679 mmHg 21%

    Tomorrow, 29 May, Tuesday

    Time Temperature Precipitation Wind Pressure Humidity
    00:00 +19°C° 0 mm 5 mps 678 mmHg 21%
    01:00 +17°C° 0 mm 5 mps 678 mmHg 22%
    02:00 +18°C° 0 mm 4 mps 678 mmHg 22%
    03:00 +17°C° 0 mm 4 mps 678 mmHg 23%
    04:00 +17°C° 0 mm 4 mps 677 mmHg 23%
    05:00 +18°C° 0 mm 4 mps 678 mmHg 22%
    06:00 +19°C° 0 mm 4 mps 678 mmHg 20%
    07:00 +20°C° 0 mm 5 mps 679 mmHg 18%
    08:00 +22°C° 0 mm 5 mps 679 mmHg 16%
    09:00 +24°C° 0 mm 6 mps 679 mmHg 13%
    10:00 +27°C° 0 mm 6 mps 679 mmHg 10%
    11:00 +28°C° 0 mm 7 mps 679 mmHg 9%
    12:00 +29°C° 0 mm 7 mps 679 mmHg 8%
    13:00 +30°C° 0 mm 7 mps 679 mmHg 7%
    14:00 +31°C° 0 mm 8 mps 678 mmHg 7%
    15:00 +31°C° 0 mm 8 mps 678 mmHg 7%
    16:00 +31°C° 0 mm 9 mps 678 mmHg 8%
    17:00 +28°C° 0 mm 8 mps 678 mmHg 9%
    18:00 +27°C° 0 mm 8 mps 678 mmHg 10%
    19:00 +24°C° 0 mm 8 mps 678 mmHg 11%
    20:00 +23°C° 0 mm 7 mps 678 mmHg 12%
    21:00 +23°C° 0 mm 7 mps 679 mmHg 12%
    22:00 +22°C° 0 mm 6 mps 679 mmHg 13%
    23:00 +21°C° 0 mm 6 mps 679 mmHg 13%

    Day after tomorrow, 30 May, Wednesday

    Time Temperature Precipitation Wind Pressure Humidity
    00:00 +21°C° 0 mm 6 mps 678 mmHg 14%
    01:00 +20°C° 0 mm 6 mps 678 mmHg 15%
    02:00 +20°C° 0 mm 6 mps 678 mmHg 15%
    03:00 +20°C° 0 mm 6 mps 678 mmHg 15%
    04:00 +19°C° 0 mm 6 mps 678 mmHg 15%
    05:00 +21°C° 0 mm 6 mps 679 mmHg 14%
    06:00 +22°C° 0 mm 7 mps 679 mmHg 13%
    07:00 +23°C° 0 mm 8 mps 680 mmHg 12%
    08:00 +24°C° 0 mm 8 mps 680 mmHg 12%
    09:00 +27°C° 0 mm 9 mps 680 mmHg 11%
    10:00 +29°C° 0 mm 10 mps 680 mmHg 10%
    11:00 +29°C° 0 mm 10 mps 680 mmHg 10%
    12:00 +31°C° 0 mm 10 mps 680 mmHg 10%
    13:00 +32°C° 0 mm 10 mps 680 mmHg 10%
    14:00 +32°C° 0 mm 10 mps 680 mmHg 10%
    15:00 +32°C° 0 mm 11 mps 679 mmHg 10%
    16:00 +32°C° 0 mm 11 mps 679 mmHg 10%
    17:00 +29°C° 0 mm 10 mps 679 mmHg 11%
    18:00 +28°C° 0 mm 10 mps 679 mmHg 12%
    19:00 +27°C° 0 mm 9 mps 680 mmHg 13%
    20:00 +26°C° 0 mm 9 mps 680 mmHg 13%
    21:00 +24°C° 0 mm 8 mps 680 mmHg 13%
    22:00 +23°C° 0 mm 7 mps 680 mmHg 14%
    23:00 +23°C° 0 mm 7 mps 680 mmHg 14%

    31 May, Thursday

    Time Temperature Precipitation Wind Pressure Humidity
    00:00 +22°C° 0 mm 6 mps 679 mmHg 15%
    01:00 +22°C° 0 mm 6 mps 679 mmHg 15%
    02:00 +21°C° 0 mm 5 mps 679 mmHg 16%
    03:00 +21°C° 0 mm 5 mps 679 mmHg 17%
    04:00 +20°C° 0 mm 5 mps 678 mmHg 18%
    05:00 +21°C° 0 mm 5 mps 679 mmHg 18%
    06:00 +22°C° 0 mm 5 mps 679 mmHg 17%
    07:00 +23°C° 0 mm 5 mps 680 mmHg 16%
    08:00 +26°C° 0 mm 6 mps 680 mmHg 15%
    09:00 +28°C° 0 mm 6 mps 680 mmHg 14%
    10:00 +30°C° 0 mm 7 mps 681 mmHg 12%
    11:00 +32°C° 0 mm 7 mps 680 mmHg 12%
    12:00 +33°C° 0 mm 7 mps 680 mmHg 12%
    13:00 +34°C° 0 mm 7 mps 680 mmHg 12%
    14:00 +34°C° 0 mm 8 mps 679 mmHg 12%
    15:00 +34°C° 0 mm 8 mps 679 mmHg 12%
    16:00 +34°C° 0 mm 8 mps 679 mmHg 12%
    17:00 +32°C° 0 mm 7 mps 679 mmHg 14%
    18:00 +30°C° 0 mm 6 mps 679 mmHg 16%
    19:00 +29°C° 0 mm 6 mps 679 mmHg 17%
    20:00 +28°C° 0 mm 5 mps 679 mmHg 18%
    21:00 +27°C° 0 mm 5 mps 679 mmHg 20%
    22:00 +26°C° 0 mm 4 mps 679 mmHg 21%
    23:00 +25°C° 0 mm 4 mps 678 mmHg 21%

    1 June, Friday

    Time Temperature Precipitation Wind Pressure Humidity
    00:00 +25°C° 0 mm 3 mps 678 mmHg 22%
    01:00 +24°C° 0 mm 3 mps 678 mmHg 22%
    02:00 +24°C° 0 mm 3 mps 678 mmHg 22%
    03:00 +24°C° 0 mm 3 mps 677 mmHg 22%
    04:00 +24°C° 0 mm 3 mps 677 mmHg 21%
    05:00 +25°C° 0 mm 3 mps 678 mmHg 20%
    06:00 +26°C° 0 mm 3 mps 678 mmHg 18%
    07:00 +28°C° 0 mm 2 mps 679 mmHg 16%
    08:00 +30°C° 0 mm 3 mps 679 mmHg 15%
    09:00 +31°C° 0 mm 3 mps 679 mmHg 13%
    10:00 +34°C° 0 mm 3 mps 680 mmHg 11%
    11:00 +36°C° 0 mm 3 mps 679 mmHg 10%
    12:00 +37°C° 0 mm 4 mps 679 mmHg 10%
    13:00 +38°C° 0 mm 4 mps 679 mmHg 9%
    14:00 +39°C° 0 mm 5 mps 679 mmHg 9%
    15:00 +39°C° 0 mm 5 mps 679 mmHg 8%
    16:00 +40°C° 0 mm 6 mps 678 mmHg 8%
    17:00 +37°C° 0 mm 5 mps 678 mmHg 9%
    18:00 +36°C° 0 mm 5 mps 678 mmHg 11%
    19:00 +34°C° 0 mm 5 mps 678 mmHg 12%
    20:00 +33°C° 0 mm 4 mps 678 mmHg 13%
    21:00 +32°C° 0 mm 4 mps 678 mmHg 14%
    22:00 +30°C° 0 mm 3 mps 678 mmHg 15%
    23:00 +30°C° 0 mm 3 mps 678 mmHg 15%

    2 June, Saturday

    Time Temperature Precipitation Wind Pressure Humidity
    00:00 +29°C° 0 mm 3 mps 677 mmHg 15%
    01:00 +28°C° 0 mm 3 mps 677 mmHg 14%
    02:00 +28°C° 0 mm 3 mps 677 mmHg 14%
    03:00 +28°C° 0 mm 3 mps 676 mmHg 14%
    04:00 +27°C° 0 mm 3 mps 676 mmHg 14%
    05:00 +29°C° 0 mm 3 mps 677 mmHg 13%
    06:00 +30°C° 0 mm 3 mps 678 mmHg 12%
    07:00 +31°C° 0 mm 3 mps 678 mmHg 11%
    08:00 +34°C° 0 mm 3 mps 678 mmHg 10%
    09:00 +36°C° 0 mm 3 mps 679 mmHg 8%
    10:00 +40°C° 0 mm 4 mps 679 mmHg 6%
    11:00 +40°C° 0 mm 4 mps 679 mmHg 6%
    12:00 +41°C° 0 mm 4 mps 679 mmHg 5%
    13:00 +42°C° 0 mm 4 mps 678 mmHg 5%
    14:00 +43°C° 0 mm 5 mps 678 mmHg 5%
    15:00 +43°C° 0 mm 5 mps 678 mmHg 5%
    16:00 +44°C° 0 mm 6 mps 677 mmHg 5%
    17:00 +41°C° 0 mm 5 mps 677 mmHg 6%
    18:00 +39°C° 0 mm 5 mps 677 mmHg 7%
    19:00 +37°C° 0 mm 5 mps 677 mmHg 8%
    20:00 +36°C° 0 mm 4 mps 677 mmHg 9%
    21:00 +35°C° 0 mm 3 mps 677 mmHg 10%
    22:00 +33°C° 0 mm 3 mps 677 mmHg 10%
    23:00 +33°C° 0 mm 3 mps 677 mmHg 11%
    Show more